Content
SEND FEEDBACK

Daily
Averages
Monthly
Summary
United States of America

ST. LOUIS - SAINT LOUIS UNIVERSITY, MISSOURI


Home > North America > United States > Missouri
Elevation: 580 feet     Latitude: 38 38N     Longitude: 090 14W

WEATHER
 
SELECT A DAY
Number of Records: 189,841;   Date Range: 1/1/95 - 11/20/14
 
SHARE

PRINT THIS DATA

[ ← Previous Day ]
WEATHER ALMANAC - MARCH 23, 2013
[ Next Day → ]
[ °C ]   °F
Weather ElementAverageHighLow
Temperature44.9 °F53.1 °F (2:53 pm)37 °F (4:53 am)
Dewpoint27.2 °F33.1 °F (11:53 pm)19.9 °F (10:53 am)
Humidity50.9 %67 % (4:53 am)37 % (11:53 am)
Barometer29.96 in30.06 in (8:53 am)29.84 in (7:53 pm)
Wind Speed7.8 mph13.8 mph (3:53 pm)
Wind Gust20.7 mph (8:53 pm)
Weather ElementAverage
Visibility10 mi
Wind DirectionENE (56.5 °)

Weather ElementTotal
Precipitation0.01 in
Heating Degree Days20 (Base 65)
Averaged from 23 records on March 23, 2013
WEATHER CONDITIONS BREAKOUT
WIND DIRECTION BREAKOUT
WEATHER BY HOUR - MARCH 23, 2013
[ °C ]   °F
Local TimeTemperatureDewpointHumidityBarometerVisibilityWind DirectionWind SpeedGust SpeedPrecipitationEventsConditions
1:53 AM37.9 °F25.0 °F60 %30.04 in10.0 miEast (100°)4.6 mphOvercast
2:53 AM37.9 °F25.0 °F60 %30.03 in10.0 miCalmOvercast
3:53 AM37.9 °F26.1 °F62 %30.01 in10.0 miCalmOvercast
4:53 AM37.0 °F27.0 °F67 %30.01 in10.0 miNNE (20°)4.6 mphOvercast
5:53 AM37.0 °F25.0 °F62 %30.02 in10.0 miENE (70°)4.6 mphOvercast
6:53 AM37.0 °F25.0 °F62 %30.04 in10.0 miENE (70°)4.6 mphOvercast
7:53 AM37.9 °F25.0 °F60 %30.05 in10.0 miENE (60°)4.6 mphOvercast
8:53 AM39.0 °F24.1 °F55 %30.06 in10.0 miNE (50°)8.1 mphOvercast
9:53 AM41.0 °F23.0 °F49 %30.05 in10.0 miEast (80°)6.9 mphOvercast
10:53 AM44.1 °F19.9 °F38 %30.04 in10.0 miENE (60°)9.2 mphOvercast
11:53 AM46.0 °F21.0 °F37 %30.04 in10.0 miENE (60°)8.1 mphMostly Cloudy
12:53 PM48.9 °F24.1 °F38 %30.01 in10.0 miENE (70°)8.1 mphClear
1:53 PM52.0 °F28.0 °F40 %29.98 in10.0 miVariable6.9 mphClear
2:53 PM53.1 °F28.9 °F40 %29.95 in10.0 miEast (80°)6.9 mph17.3 mphClear
3:53 PM52.0 °F30.0 °F43 %29.91 in10.0 miEast (80°)13.8 mphOvercast
4:53 PM53.1 °F30.9 °F43 %29.88 in10.0 miENE (70°)11.5 mphMostly Cloudy
5:53 PM52.0 °F30.9 °F45 %29.87 in10.0 miENE (70°)12.7 mphPartly Cloudy
6:53 PM51.1 °F30.9 °F46 %29.87 in10.0 miEast (80°)11.5 mphOvercast
7:53 PM50.0 °F30.9 °F48 %29.84 in10.0 miENE (70°)10.4 mphOvercast
8:53 PM48.9 °F30.0 °F48 %29.84 in10.0 miENE (60°)10.4 mph20.7 mphOvercast
9:53 PM48.9 °F30.0 °F48 %29.84 in10.0 miEast (80°)9.2 mphOvercast
10:53 PM46.9 °F30.9 °F54 %29.86 in10.0 miNE (40°)8.1 mph0.00 inRainLight Rain
11:53 PM44.1 °F33.1 °F65 %29.85 in10.0 miNNE (30°)13.8 mph0.01 inRainLight Rain
Hourly data recorded from KCPS, located miles away from St. Louis - Saint Louis University, Missouri







STORIES FROM OUR PARTNERS